Location: Unspecified
(0.0000°N, 0.0000°E)
Time: 23:54:00
(UTC+00:00)

S-56A Canister/Altair - Pass Details

Date: 08 October 2020
Orbit: 633 x 2499 km, 38.9° (Epoch: 28 October)

Event Time Altitude Azimuth Distance (km) Brightness Sun altitude
Rises 18:14:38 0° 324° (NW) 5,980 12.5 -6.8°
Reaches altitude 10° 18:19:20 10° 332° (NNW) 4,783 11.9 -7.9°
Maximum altitude 18:30:45 37° 34° (NE) 2,531 9.8 -10.8°
Enters shadow 18:37:46 15° 93° (E) 3,168 10.0 -12.5°
Drops below altitude 10° 18:38:55 10° 98° (E) 3,433 - -12.8°
Sets 18:41:40 0° 107° (ESE) 4,164 - -13.5°
